User: anonymous   Login
Location: Dillon
(41.1766°N, 107.0923°W)
Time: 02:18:39
(UTC+00:00)
Language:

FENGYUN 1C DEB - Orbit

View from above orbital plane
View from above orbital plane
View from above satellite
View from above satellite

Ground track
Ground track

The orbit data is extracted from the following two-line orbital elements,

1 37470U 99025EJQ 22343.17739155  .00006987  00000-0  25198-2 0  9995
2 37470  98.6846  67.4905 0025306 221.1703 138.7572 14.33758177494610
Epoch (UTC): 09 December 2022 04:15:26
Eccentricity: 0.0025306
inclination: 98.6846°
perigee height: 761 km
apogee height: 797 km
right ascension of ascending node: 67.4905°
argument of perigee: 221.1703°
revolutions per day: 14.33758177
mean anomaly at epoch: 138.7572°
orbit number at epoch: 49461

The dashed part of the orbit path shows where the satellite is in the earth's shadow,  

DLR